Location: Treviso
(45.6669°N, 12.2430°E)
Time: 01:19:29
(UTC+01:00)

ISS - Pass Details

Date: 10 March 2026
Orbit: 416 x 426 km, 51.6° (Epoch: 9 March)

Event Time Altitude Azimuth Distance (km) Brightness Sun altitude
Rises 20:28:13 0° 230° (SW) 2,371 0.4 -24.5°
Reaches altitude 10° 20:30:20 10° 226° (SW) 1,507 -0.7 -24.9°
Enters shadow 20:30:43 13° 225° (SW) 1,350 -1.0 -24.9°
